Powrót do katalogu

DELTA 1 DEB

AktywnySSO
NORAD 21460·DEBRIS·🇺🇸 United States

Wystrzelony Jun 12, 1975 z Vandenberg Space Force Base

Loading…

Następne Przeloty (najbliższe 24 godziny)

TLE

ŚwieżeSource: Space-Track

Epoka: Sep 14, 2026, 05:37 UTC

1 21460U 75052EU  26257.23455705  .00000054  00000-0  20547-3 0  9995
2 21460  99.7562 170.9649 0080879 197.7361 326.5427 13.28567064713591

Śledź DELTA 1 DEB w czasie rzeczywistym z AllMySat

Download on the App Store